Location: Unspecified
(0.0000°N, 0.0000°E)
Time: 01:51:54
(UTC+00:00)

Vanguard 2 Rocket - Visible Passes

Search period start: 04 December 2016 00:00
Search period end: 14 December 2016 00:00
Orbit: 554 x 3328 km, 32.9° (Epoch: 02 December)

Date Brightness Start Highest point End Pass type
(mag) Time Alt. Az. Time Alt. Az. Time Alt. Az.
04 Dec 10.9 01:59:34 10° SSW 02:09:51 18° S 02:21:32 10° SE visible
04 Dec 10.9 04:16:08 10° SSW 04:33:15 33° SSE 04:48:44 10° E visible
04 Dec 7.4 18:10:58 10° NNW 18:14:42 27° NE 18:19:46 10° E visible
04 Dec 8.1 20:22:33 10° W 20:27:56 44° SSW 20:37:01 10° SE visible
04 Dec 10.1 22:38:59 10° SW 22:45:01 18° SSW 22:53:12 10° SSE visible
05 Dec 10.8 00:58:51 10° SSW 01:06:32 15° S 01:15:39 10° SE visible
05 Dec 11.0 03:15:20 10° SSW 03:30:11 27° SSE 03:45:20 10° ESE visible
05 Dec 7.0 19:23:39 10° WNW 19:28:23 70° SSW 19:36:11 10° SE visible
05 Dec 9.7 21:38:32 10° WSW 21:43:57 20° SSW 21:51:42 10° SSE visible
05 Dec 10.6 23:58:11 10° SSW 00:03:44 13° S 00:10:22 10° SSE visible
06 Dec 10.9 02:14:58 10° SSW 02:26:57 21° SSE 02:40:24 10° ESE visible
06 Dec 10.6 04:30:21 10° SW 04:49:02 44° SSE 05:05:30 10° E visible
06 Dec 6.4 18:25:09 10° NW 18:29:19 61° NE 18:35:29 10° ESE visible
06 Dec 9.1 20:38:37 10° WSW 20:43:31 25° SSW 20:50:51 10° SSE visible
06 Dec 10.4 22:57:27 10° SSW 23:01:37 13° S 23:06:36 10° SSE visible
07 Dec 10.8 01:15:01 10° SSW 01:23:47 16° SSE 01:34:05 10° SE visible
07 Dec 10.7 03:29:41 10° SSW 03:46:18 35° SSE 04:02:59 10° E visible
07 Dec 8.3 19:39:09 10° W 19:43:36 34° SSW 19:50:27 10° SE visible
07 Dec 10.2 21:56:37 10° SW 22:00:12 13° S 22:04:34 10° SSE visible
08 Dec 10.7 00:15:36 10° SSW 00:20:54 13° S 00:27:03 10° SSE visible
08 Dec 10.8 02:29:33 10° SSW 02:43:27 27° SSE 02:58:59 10° ESE visible
08 Dec 10.2 04:44:35 10° SW 05:04:20 59° SE 05:21:29 10° ENE visible
08 Dec 7.0 18:40:03 10° WNW 18:44:12 57° SSW 18:50:18 10° SE visible
08 Dec 9.8 20:55:54 10° SW 20:59:25 14° SSW 21:03:53 10° SSE visible
09 Dec 10.8 01:29:57 10° SSW 01:40:37 20° SSE 01:53:20 10° ESE visible
09 Dec 10.4 03:43:54 10° SW 04:01:51 46° SSE 04:19:43 10° E visible
09 Dec 9.2 19:55:36 10° WSW 19:59:11 18° SSW 20:03:56 10° SSE visible
10 Dec 10.8 00:31:03 10° S 00:37:56 14° SSE 00:46:07 10° SE visible
10 Dec 10.6 02:43:47 10° SSW 02:59:19 35° SSE 03:16:41 10° E visible
10 Dec 9.8 04:58:59 10° SW 05:19:15 78° SE 05:36:50 10° ENE visible
10 Dec 8.5 18:55:47 10° W 18:59:25 25° SSW 19:04:21 10° SSE visible
11 Dec 10.7 01:44:15 10° SSW 01:56:50 26° SSE 02:12:07 10° ESE visible
11 Dec 10.0 03:58:07 10° SW 04:16:56 61° SE 04:35:39 10° ENE visible
12 Dec 10.7 00:45:23 10° SSW 00:54:30 18° SSE 01:05:50 10° ESE visible
12 Dec 10.2 02:57:56 10° SW 03:14:36 47° SE 03:33:25 10° ENE visible
12 Dec 9.7 05:13:43 10° WSW 05:33:58 82° NW 05:51:40 10° NE visible
12 Dec 9.4 19:13:08 10° SW 19:14:58 12° SSW 19:17:01 10° S visible
12 Dec 10.7 23:47:52 10° S 23:52:22 12° SSE 23:57:32 10° SE visible
13 Dec 10.4 01:58:20 10° SSW 02:12:25 35° SSE 02:29:53 10° E visible
13 Dec 9.7 04:12:34 10° SW 04:31:44 80° SE 04:50:56 10° ENE visible
